Date,TemperatureHighF,TemperatureAvgF,TemperatureLowF,DewpointHighF,DewpointAvgF,DewpointLowF,HumidityHigh,HumidityAvg,HumidityLow,PressureMaxIn,PressureMinIn,WindSpeedMaxMPH,WindSpeedAvgMPH,GustSpeedMaxMPH,PrecipitationSumIn
2013-1-1,42.0,32.3,23.0,24.9,20.2,15.2,79,62,41,30.41,30.27,7,3,11,0.00
2013-1-2,47.9,38.3,27.0,25.9,20.6,14.5,65,49,37,30.31,30.15,9,5,11,0.00
2013-1-3,42.9,35.8,31.2,31.9,25.7,18.4,89,68,46,30.35,30.13,9,5,13,0.00
2013-1-4,43.2,35.7,29.4,29.0,26.6,23.3,86,70,54,30.45,30.34,6,3,7,0.01
2013-1-5,50.8,41.7,33.1,27.6,25.5,21.9,74,54,32,30.49,30.41,6,4,7,0.00
2013-1-6,55.0,49.7,40.6,24.0,18.4,12.8,43,29,23,30.33,30.00,15,8,19,0.00
2013-1-7,54.1,47.6,36.6,23.9,14.5,4.6,54,28,14,29.91,29.79,10,5,22,0.00
2013-1-8,57.6,49.9,41.6,26.2,18.8,11.1,54,30,19,30.16,30.03,9,6,12,0.00
2013-1-9,57.5,47.9,37.2,18.3,14.6,10.1,44,27,16,30.33,30.15,10,4,11,0.00
2013-1-10,60.2,52.9,43.1,21.1,14.6,11.6,35,22,15,30.16,29.86,18,10,31,0.00
2013-1-11,44.2,35.4,23.9,16.3,7.7,1.2,61,34,17,30.05,29.94,7,3,24,0.00
2013-1-12,35.9,29.0,19.2,11.5,6.7,2.7,60,40,25,30.29,30.05,9,4,16,0.00
2013-1-13,42.2,31.4,19.4,8.4,1.8,-4.3,54,30,14,30.30,30.13,12,4,15,0.00
2013-1-14,37.5,28.9,16.4,7.6,1.9,-2.0,53,32,20,30.36,30.19,8,3,10,0.00
2013-1-15,36.2,28.9,16.4,3.5,-3.8,-10.2,51,26,14,30.57,30.35,11,6,16,0.00
2013-1-16,50.8,43.5,34.6,9.8,3.0,-5.2,34,19,14,30.58,30.42,8,5,12,0.00
2013-1-17,58.3,50.6,43.2,11.5,9.4,5.2,26,19,15,30.43,30.30,10,5,11,0.00
2013-1-18,62.1,51.9,39.3,15.9,11.6,5.7,31,20,13,30.36,30.21,5,3,9,0.00
2013-1-19,66.9,54.2,40.3,25.7,19.2,10.5,41,26,15,30.31,30.17,7,3,9,0.00
2013-1-20,68.6,55.4,44.8,30.7,25.8,18.1,51,33,22,30.22,30.04,9,4,13,0.00
2013-1-21,68.3,60.9,52.2,30.2,27.7,23.0,42,29,22,30.15,30.05,7,4,9,0.00
2013-1-22,68.3,57.1,44.5,31.5,26.0,19.9,54,31,16,30.23,30.14,7,4,7,0.00
2013-1-23,70.4,60.9,47.4,28.8,26.1,22.7,43,27,19,30.28,30.17,8,4,13,0.00
2013-1-24,66.0,59.2,53.9,40.0,33.2,29.2,58,38,26,30.22,30.13,7,3,11,0.00
2013-1-25,68.1,62.9,56.3,46.4,39.5,35.8,69,43,33,30.19,30.00,17,5,24,0.00
2013-1-26,63.2,59.8,55.1,51.2,44.7,39.7,86,58,43,30.01,29.87,18,11,33,0.51
2013-1-27,63.5,58.5,54.5,48.9,44.7,42.4,78,60,49,29.99,29.92,9,6,14,0.18
2013-1-28,51.6,45.9,36.0,42.0,35.5,28.5,91,68,48,29.97,29.87,18,10,26,0.24
2013-1-29,46.5,36.3,27.5,33.8,24.3,17.7,92,65,34,30.25,29.97,9,3,11,0.86
2013-1-30,49.7,42.2,33.4,17.3,15.6,12.1,51,35,24,30.41,30.34,10,4,13,0.00
2013-1-31,56.9,50.4,42.5,28.6,24.1,21.4,49,36,29,30.36,30.24,7,2,11,0.00